Tracking 19484 objects as of 20-Jan-2019
HD Live streaming from Space Station
objects crossing your sky now

FLOCK 3R 15

Track FLOCK 3R 15 now!
10-day predictions
FLOCK 3R 15 is classified as:


NORAD ID: 43736
Int'l Code: 2018-096T
Perigee: 476.0 km
Apogee: 507.9 km
Inclination: 97.5 °
Period: 94.3 minutes
Semi major axis: 6862 km
RCS: Unknown
Launch date: November 29, 2018
Source: United States (US)
Launch site: SRIHARIKOTA (SRI)
aabbcc
Your satellite tracking list
Your tracking list is empty




NASA's NSSDC Master Catalog

Two Line Element Set (TLE):
1 43736U 18096T   19020.52288081  .00001086  00000-0  43539-4 0  9996
2 43736  97.4787  90.6275 0023263 141.8108 218.4784 15.26989850  7986
Source of the keplerian elements: AFSPC